Regional Weather Roundup
Issued by NWS Memphis, TN

Home | Current Version | Previous Version | Text Only | Print | Product List | Glossary On
Versions: 1 2 3 4 5 6 7 8 9 10 11 12 13 14 15 16 17 18 19 20 21 22 23 24 25 26 27 28 29 30 31 32 33 34 35 36 37 38 39 40 41 42 43 44 45 46 47 48 49 50
000
ASUS44 KMEG 012210
RWRMEG
MEMPHIS CWA HOURLY WEATHER ROUNDUP
NATIONAL WEATHER SERVICE MEMPHIS TN
500 PM CDT SAT AUG 01 2015

...WEST TENNESSEE...

CITY           SKY/WX    TMP DP  RH WIND       PRES   REMARKS
MEMPHIS INTL   MOSUNNY   95  61  32 NW8       29.97F HX  95
NWS MEMPHIS      N/A     94 N/A N/A MISG        N/A
JACKSON        SUNNY     93  62  35 NW5       29.97F HX  93
LEXINGTON      SUNNY     90  64  43 NW3       29.97S HX  91
DYERSBURG        N/A    N/A N/A N/A MISG        N/A
PARIS          MOSUNNY   88  68  51 CALM      29.99S HX  91


...EASTERN ARKANSAS...

CITY           SKY/WX    TMP DP  RH WIND       PRES   REMARKS
JONESBORO      SUNNY     91  63  39 NW6       29.98S HX  92
WEST MEMPHIS   SUNNY     94  65  38 N9        29.96S HX  96
BATESVILLE     SUNNY     91  68  46 W5        29.99S HX  95
NEWPORT        SUNNY     93  65  39 CALM      29.99S HX  95
WALNUT RIDGE   SUNNY     91  63  38 NW5       29.97S HX  92
BLYTHEVILLE    SUNNY     92  72  51 N6        29.98S HX  99
SEARCY         SUNNY     95  58  28 NE6       29.98F HX  94
STUTTGART      SUNNY     95  64  36 MISG      29.98S HX  97
PINE BLUFF     SUNNY     94  62  34 E8        29.98S HX  94
MONTICELLO     SUNNY     95  58  28 E9        29.97F HX  94


...NORTH MISSISSIPPI...

CITY           SKY/WX    TMP DP  RH WIND       PRES   REMARKS
TUPELO         SUNNY     92  61  35 NE7       29.95F HX  92
OLIVE BRANCH   MOSUNNY   93  63  36 NE10      29.97F HX  94
TUNICA         SUNNY     93  61  33 NW9       29.97F HX  93
CLARKSDALE     MOSUNNY   93  68  43 W7        29.97F HX  97
CORINTH        MOSUNNY   91  63  38 VRB3      29.96S HX  92
GREENWOOD      SUNNY     94  57  28 NE12      29.94F HX  92
COLUMBUS       SUNNY     94  58  30 NE14      29.92F HX  93
STARKVILLE     FAIR      91  59  33 N8G17     29.94S HX  90
GOLDEN TRIANGL MOSUNNY   97  55  24 NE17G24   29.92F HX  95


...SOUTHEAST MISSOURI...

CITY           SKY/WX    TMP DP  RH WIND       PRES   REMARKS
WEST PLAINS    SUNNY     89  60  37 SW5       30.05S
POPLAR BLUFF   MOSUNNY   90  67  46 CALM      29.97S HX  93
CAPE GIRARDEAU MOSUNNY   87  70  56 CALM      29.98S HX  92


...NORTHWEST ALABAMA...

CITY           SKY/WX    TMP DP  RH WIND       PRES   REMARKS
MUSCLE SHOALS  SUNNY     92  60  34 E8        29.96F HX  91


...MIDDLE TENNESSEE...

CITY           SKY/WX    TMP DP  RH WIND       PRES   REMARKS
NASHVILLE      MOSUNNY   92  64  39 N13       29.97F HX  93
CLARKSVILLE    SUNNY     88  69  53 N8        29.98S HX  92
COLUMBIA       SUNNY     91  64  40 VRB7      29.96F HX  93


...WESTERN KENTUCKY...

CITY           SKY/WX    TMP DP  RH WIND       PRES   REMARKS
PADUCAH        SUNNY     90  68  48 NE6       29.97F HX  94
FORT CAMPBELL  SUNNY     88  70  55 NW6       29.98S HX  92


...CENTRAL ARKANSAS...

CITY           SKY/WX    TMP DP  RH WIND       PRES   REMARKS
LITTLE ROCK    PTSUNNY   95  61  32 SE8       29.97F HX  95


SKY/WX REPORTED AS FAIR MEANS FEW OR NO CLOUDS BELOW
12 THOUSAND FEET.




USA.gov is the U.S. government's official web portal to all federal, state and local government web resources and services.